Location: Lake Lucerne
(45.5315°N, 88.8489°W)
Time: 02:31:20
(UTC-06:00)

ISS - Visible Passes

Search period start: 23 February 2018 00:00
Search period end: 05 March 2018 00:00
Orbit: 402 x 407 km, 51.6° (Epoch: 23 February)

Date Brightness Start Highest point End Pass type
(mag) Time Alt. Az. Time Alt. Az. Time Alt. Az.
26 Feb -1.0 05:33:50 10° S 05:35:59 17° SE 05:38:09 10° E visible
28 Feb -2.3 05:24:37 10° SSW 05:27:38 34° SE 05:30:39 10° ENE visible
01 Mar -1.6 04:34:40 18° SSE 04:35:28 20° SE 04:37:58 10° E visible
02 Mar -3.7 05:17:25 22° SW 05:19:21 74° SSE 05:22:38 10° ENE visible
03 Mar -2.7 04:27:22 41° SE 04:27:22 41° SE 04:30:12 10° ENE visible
03 Mar -3.1 06:00:27 10° W 06:03:35 41° NNW 06:06:43 10° NE visible
04 Mar -0.4 03:37:13 12° E 03:37:13 12° E 03:37:35 10° E visible
04 Mar -3.6 05:09:52 32° W 05:11:09 58° NNW 05:14:24 10° ENE visible
